User: anonymous   Login
Location: Marsån
(66.4167°N, 22.2833°E)
Time: 18:25:57
(UTC+00:00)
Language:

Cosmos 1943 - Orbit

View from above orbital plane
View from above orbital plane
View from above satellite
View from above satellite

Ground track
Ground track

The orbit data is extracted from the following two-line orbital elements,

1 19119U 88039A   24141.56302556  .00000261  00000-0  15803-3 0  9992
2 19119  71.0022 189.2001 0011432 181.0715 288.2226 14.15444440859946
Epoch (UTC): 20 May 2024 13:30:45
Eccentricity: 0.0011432
inclination: 71.0022°
perigee height: 832 km
apogee height: 849 km
right ascension of ascending node: 189.2001°
argument of perigee: 181.0715°
revolutions per day: 14.15444440
mean anomaly at epoch: 288.2226°
orbit number at epoch: 85994

The dashed part of the orbit path shows where the satellite is in the earth's shadow,  

DLR